User: anonymous   Login
Location: Columbia
(38.9520°N, 92.3340°W)
Time: 21:38:32
(UTC-05:00)
Language:

FENGYUN 3A - Orbit

View from above orbital plane
View from above orbital plane
View from above satellite
View from above satellite

Ground track
Ground track

The orbit data is extracted from the following two-line orbital elements,

1 32958U 08026A   17203.87683580 +.00000009 +00000-0 +23460-4 0  9999
2 32958 098.4060 230.7713 0009649 169.7332 190.4041 14.19667003474391
Epoch (UTC): 22 July 2017 21:02:38
Eccentricity: 0.0009649
inclination: 98.4060°
perigee height: 819 km
apogee height: 833 km
right ascension of ascending node: 230.7713°
argument of perigee: 169.7332°
revolutions per day: 14.19667003
mean anomaly at epoch: 190.4041°
orbit number at epoch: 47439

The dashed part of the orbit path shows where the satellite is in the earth's shadow,  

DLR